OE9FWV Weather Reports


Display with metric or nautical units.
time (UTC)temp
F
wind
direction
speed
MPH
gust
MPH
rain 1hr
in
rain 24hr
in
rain mn
in
humidity
%
barometer
mb
20240229054540 43 359 0.0 0.0 0.00 0.00 0.00 91 1017.6
20240229053536 43 359 0.0 0.0 0.00 0.00 0.00 91 1017.6
20240229052533 43 359 0.0 0.0 0.00 0.00 0.00 91 1017.7
20240229051522 43 359 0.0 0.0 0.00 0.00 0.00 91 1017.7
20240229050522 43 359 0.0 0.0 0.00 0.00 0.00 91 1017.8
20240229045517 43 359 0.0 0.0 0.00 0.00 0.00 91 1017.8
20240229044508 43 359 0.0 0.0 0.00 0.00 0.00 91 1018.0
20240229043502 43 359 0.0 0.0 0.00 0.00 0.00 90 1017.9
20240229042500 43 359 0.0 2.0 0.00 0.00 0.00 91 1018.0
20240229041500 43 359 0.0 0.0 0.00 0.00 0.00 90 1018.0
20240229040455 43 359 0.0 0.0 0.00 0.00 0.00 90 1018.0
20240229035453 43 359 0.0 0.0 0.00 0.00 0.00 90 1018.2
20240229034447 43 359 0.0 0.0 0.00 0.00 0.00 90 1018.3
20240229033441 43 359 0.0 0.0 0.00 0.00 0.00 90 1018.4
20240229032436 43 359 0.0 0.0 0.00 0.00 0.00 90 1018.5
20240229031435 43 359 0.0 0.0 0.00 0.00 0.00 90 1018.7
20240229030431 43 359 0.0 0.0 0.00 0.00 0.00 90 1018.8
20240229025429 43 359 0.0 0.0 0.00 0.00 0.00 90 1018.8
20240229024426 43 359 0.0 0.0 0.00 0.00 0.00 90 1018.8
20240229023423 43 359 0.0 0.0 0.00 0.00 0.00 90 1018.8
20240229022416 43 359 0.0 0.0 0.00 0.00 0.00 90 1018.9
20240229021411 43 359 0.0 0.0 0.00 0.00 0.00 89 1018.9
20240229020406 43 359 0.0 0.0 0.00 0.00 0.00 90 1018.9
20240229015406 43 359 0.0 0.0 0.00 0.00 0.00 90 1018.9
20240229014406 43 359 0.0 0.0 0.00 0.00 0.00 90 1019.1
20240229013357 43 359 0.0 0.0 0.00 0.00 0.00 89 1019.2
20240229012352 43 359 0.0 0.0 0.00 0.00 0.00 89 1019.6
20240229011352 43 359 0.0 0.0 0.00 0.00 0.00 89 1019.6
20240229010353 43 359 0.0 0.0 0.00 0.00 0.00 89 1019.7
20240229005349 44 359 0.0 0.0 0.00 0.00 0.00 89 1019.8
20240229004345 44 359 0.0 0.0 0.00 0.00 0.00 89 1019.8
20240229003340 44 359 0.0 0.0 0.00 0.00 0.00 89 1019.8
20240229002341 44 359 0.0 0.0 0.00 0.00 0.00 89 1020.1
20240229001340 44 359 0.0 0.0 0.00 0.00 0.00 89 1020.0
20240229000337 44 359 0.0 0.0 0.00 0.00 0.00 88 1020.2
20240228235331 44 359 0.0 0.0 0.00 0.00 0.00 88 1020.1
20240228234325 44 359 0.0 0.0 0.00 0.00 0.00 88 1020.2
20240228233322 44 359 0.0 0.0 0.00 0.00 0.00 88 1020.2
20240228232316 44 359 0.0 0.0 0.00 0.00 0.00 88 1020.3
20240228231307 44 359 0.0 0.0 0.00 0.00 0.00 88 1020.3
20240228230300 44 359 0.0 0.0 0.00 0.00 0.00 88 1020.5
20240228225257 44 359 0.0 0.0 0.00 0.00 0.00 88 1020.5
20240228224256 44 359 0.0 0.0 0.00 0.00 0.00 88 1020.7
20240228223307 44 359 0.0 0.0 0.00 0.00 0.00 87 1020.8
20240228222247 44 359 0.0 0.0 0.00 0.00 0.00 87 1020.8
20240228221241 44 359 0.0 0.0 0.00 0.00 0.00 87 1020.9
20240228220240 45 359 0.0 0.0 0.00 0.00 0.00 88 1020.9
20240228215237 45 359 0.0 0.0 0.00 0.00 0.00 87 1021.0
20240228214232 45 359 0.0 0.0 0.00 0.00 0.00 87 1021.1
20240228213226 45 359 0.0 0.0 0.00 0.00 0.00 87 1021.2
20240228212223 45 359 0.0 0.0 0.00 0.00 0.00 87 1021.3
20240228211224 45 359 0.0 0.0 0.00 0.00 0.00 87 1021.2
20240228210221 45 359 0.0 0.0 0.00 0.00 0.00 87 1021.2
20240228205215 45 359 0.0 0.0 0.00 0.00 0.00 87 1021.4
20240228204214 45 359 0.0 0.0 0.00 0.00 0.00 87 1021.5
20240228203211 45 359 0.0 0.0 0.00 0.00 0.00 87 1021.6
20240228202208 45 359 0.0 0.0 0.00 0.00 0.00 87 1021.5
20240228201205 45 359 0.0 0.0 0.00 0.00 0.00 86 1021.6
20240228200201 45 359 0.0 0.0 0.00 0.00 0.00 86 1021.6
20240228195200 45 359 0.0 0.0 0.00 0.00 0.00 86 1021.6
20240228194157 45 359 0.0 0.0 0.00 0.00 0.00 86 1021.5
20240228193149 45 359 0.0 0.0 0.00 0.00 0.00 86 1021.3
20240228192150 45 359 0.0 0.0 0.00 0.00 0.00 86 1021.3
20240228191149 45 359 0.0 0.0 0.00 0.00 0.00 86 1021.3
20240228190145 45 359 0.0 0.0 0.00 0.00 0.00 86 1021.4
20240228185136 45 359 0.0 0.0 0.00 0.00 0.00 86 1021.4
20240228184133 45 359 0.0 0.0 0.00 0.00 0.00 86 1021.5
20240228183133 45 359 0.0 0.0 0.00 0.00 0.00 86 1021.5
20240228182130 45 359 0.0 0.0 0.00 0.00 0.00 86 1021.4
20240228181120 45 359 0.0 0.0 0.00 0.00 0.00 86 1021.6
20240228180117 45 359 0.0 0.0 0.00 0.00 0.00 85 1021.4
20240228175114 45 359 0.0 1.0 0.00 0.00 0.00 85 1021.4
20240228174115 46 359 0.0 0.0 0.00 0.00 0.00 85 1021.2
20240228173109 46 359 0.0 0.0 0.00 0.00 0.00 85 1021.3
20240228172106 46 359 0.0 0.0 0.00 0.00 0.00 85 1021.2
20240228171103 46 359 0.0 0.0 0.00 0.00 0.00 85 1021.3
20240228170104 46 359 0.0 1.0 0.00 0.00 0.00 85 1021.2
20240228165055 46 359 0.0 3.0 0.00 0.00 0.00 85 1021.2
20240228164050 46 359 6.0 6.0 0.00 0.00 0.00 85 1021.1
20240228163046 46 1 3.0 5.0 0.00 0.00 0.00 85 1021.2
20240228162046 46 1 2.0 5.0 0.00 0.00 0.00 85 1021.1
20240228161045 46 358 3.0 6.0 0.00 0.00 0.00 84 1021.1
20240228160040 46 356 4.0 5.0 0.00 0.00 0.00 84 1021.0
20240228155031 46 354 5.0 7.0 0.00 0.00 0.00 84 1021.0
20240228154031 46 350 4.0 5.0 0.00 0.00 0.00 84 1021.0
20240228153028 46 348 4.0 5.0 0.00 0.00 0.00 84 1020.9
20240228152024 46 12 7.0 7.0 0.00 0.00 0.00 84 1020.8
20240228151017 47 20 5.0 5.0 0.00 0.00 0.00 84 1020.8
20240228150013 47 21 7.0 7.0 0.00 0.00 0.00 84 1020.7
20240228145010 47 20 3.0 6.0 0.00 0.00 0.00 83 1020.7
20240228144008 47 13 6.0 6.0 0.00 0.00 0.00 83 1020.6
20240228143002 47 16 6.0 12.0 0.00 0.00 0.00 82 1020.5
20240228141959 48 8 6.0 8.0 0.00 0.00 0.00 82 1020.5
20240228140959 48 347 6.0 9.0 0.00 0.00 0.00 82 1020.4
20240228135956 48 357 4.0 9.0 0.00 0.00 0.00 82 1020.4
20240228134954 48 345 6.0 6.0 0.00 0.00 0.00 82 1020.4
20240228133950 48 353 6.0 12.0 0.00 0.00 0.00 82 1020.4
20240228132949 48 353 4.0 6.0 0.00 0.00 0.00 82 1020.4
20240228131944 48 355 4.0 8.0 0.00 0.00 0.00 82 1020.4
20240228130937 48 7 6.0 8.0 0.00 0.00 0.00 81 1020.4
20240228125923 49 2 5.0 10.0 0.00 0.00 0.00 80 1020.5
20240228124918 49 355 4.0 5.0 0.00 0.00 0.00 82 1020.5
20240228123918 48 6 3.0 5.0 0.00 0.00 0.00 81 1020.4
20240228122918 48 6 3.0 7.0 0.00 0.00 0.00 81 1020.4
20240228121916 48 352 3.0 5.0 0.00 0.00 0.00 81 1020.4
20240228120911 49 330 4.0 6.0 0.00 0.00 0.00 80 1020.4
20240228115900 48 330 1.0 5.0 0.00 0.00 0.00 81 1020.5
20240228114858 48 330 1.0 1.0 0.00 0.00 0.00 82 1020.5
20240228113851 48 330 1.0 2.0 0.00 0.00 0.00 82 1020.5
20240228112851 48 330 0.0 0.0 0.00 0.00 0.00 83 1020.6
20240228111848 47 330 0.0 0.0 0.00 0.00 0.00 83 1020.6
20240228110839 47 330 0.0 0.0 0.00 0.00 0.00 83 1020.7
20240228105836 47 330 0.0 0.0 0.00 0.00 0.00 84 1020.7
20240228104837 47 330 0.0 0.0 0.00 0.00 0.00 85 1020.7
20240228103836 47 330 0.0 0.0 0.00 0.00 0.00 85 1020.8
20240228102825 47 330 0.0 0.0 0.00 0.00 0.00 85 1020.8
20240228101820 46 330 0.0 0.0 0.00 0.00 0.00 86 1020.8
20240228100814 46 330 0.0 1.0 0.00 0.00 0.00 87 1020.8
20240228095814 46 330 0.0 0.0 0.00 0.00 0.00 88 1020.7
20240228094811 46 330 0.0 0.0 0.00 0.00 0.00 88 1020.7
20240228093804 46 330 0.0 0.0 0.00 0.00 0.00 88 1020.7
20240228092802 45 330 0.0 0.0 0.00 0.00 0.00 88 1020.7
20240228091758 45 330 0.0 0.0 0.00 0.00 0.00 88 1020.6
20240228090754 45 330 0.0 0.0 0.00 0.00 0.00 89 1020.5
20240228085747 45 330 0.0 0.0 0.00 0.00 0.00 89 1020.4
20240228084747 45 330 0.0 0.0 0.00 0.00 0.00 89 1020.3
20240228083747 44 330 0.0 0.0 0.00 0.00 0.00 89 1020.2
20240228082737 44 330 0.0 0.0 0.00 0.00 0.00 89 1020.1
20240228081732 44 330 0.0 0.0 0.00 0.00 0.00 89 1020.0
20240228080731 44 330 0.0 0.0 0.00 0.00 0.00 89 1020.0
20240228075728 44 330 0.0 0.0 0.00 0.00 0.00 89 1019.9
20240228074726 44 330 0.0 0.0 0.00 0.00 0.00 89 1019.9
20240228073726 44 330 0.0 0.0 0.00 0.00 0.00 89 1019.8
20240228072726 44 330 0.0 0.0 0.00 0.00 0.00 89 1019.7
20240228071723 44 330 0.0 0.0 0.00 0.00 0.00 89 1019.6
20240228070722 43 330 0.0 0.0 0.00 0.00 0.00 89 1019.5
20240228065722 43 330 0.0 0.0 0.00 0.00 0.00 89 1019.4
20240228064722 43 330 0.0 0.0 0.00 0.00 0.00 89 1019.2
20240228063720 43 330 0.0 0.0 0.00 0.00 0.00 90 1019.1
20240228062716 43 330 0.0 0.0 0.00 0.00 0.00 90 1019.0
20240228061708 43 330 0.0 0.0 0.00 0.00 0.00 90 1018.9
20240228060659 43 330 0.0 0.0 0.00 0.00 0.00 90 1018.6
20240228055657 43 330 0.0 0.0 0.00 0.00 0.00 90 1018.3